Terug naar catalogus

STARLINK-35966

ActiefCommunicatieVLEO
NORAD 66821·PAYLOAD·🇺🇸 United States

Gelanceerd Dec 2, 2025 vanaf Vandenberg Space Force Base

Loading…

Volgende Passages (komende 24 uur)

TLE

VersSource: CelesTrak SupGP

Epoch: Sep 15, 2026, 03:20 UTC

1 66821C 25280A   26258.13937500 -.00011056  00000+0 -92687-3 0  2588
2 66821  70.0012 216.9751 0003084 272.9735 277.1463 14.98323167    11

Volg STARLINK-35966 in realtime met AllMySat

Download on the App Store